Year,Month,Day,Hour,Minute,Value (Times are PST for temperature in C)
2013,03,27,00,00,4.50
2013,03,27,00,01,4.50
2013,03,27,00,02,4.50
2013,03,27,00,03,4.40
2013,03,27,00,04,4.40
2013,03,27,00,05,4.40
2013,03,27,00,06,4.40
2013,03,27,00,07,4.40
2013,03,27,00,08,4.40
2013,03,27,00,09,4.40
2013,03,27,00,10,4.40
2013,03,27,00,11,4.40
2013,03,27,00,12,4.40
2013,03,27,00,13,4.40
2013,03,27,00,14,4.40
2013,03,27,00,15,4.30
2013,03,27,00,16,4.30
2013,03,27,00,17,4.30
2013,03,27,00,18,4.30
2013,03,27,00,19,4.30
2013,03,27,00,20,4.30
2013,03,27,00,21,4.30
2013,03,27,00,22,4.30
2013,03,27,00,23,4.30
2013,03,27,00,24,4.30
2013,03,27,00,25,4.30
2013,03,27,00,26,4.30
2013,03,27,00,27,4.30
2013,03,27,00,28,4.30
2013,03,27,00,29,4.30
2013,03,27,00,30,4.30
2013,03,27,00,31,4.30
2013,03,27,00,32,4.30
2013,03,27,00,33,4.30
2013,03,27,00,34,4.30
2013,03,27,00,35,4.20
2013,03,27,00,36,4.20
2013,03,27,00,37,4.20
2013,03,27,00,38,4.20
2013,03,27,00,39,4.20
2013,03,27,00,40,4.20
2013,03,27,00,41,4.20
2013,03,27,00,42,4.20
2013,03,27,00,43,4.20
2013,03,27,00,44,4.20
2013,03,27,00,45,4.20
2013,03,27,00,46,4.10
2013,03,27,00,47,4.10
2013,03,27,00,48,4.10
2013,03,27,00,49,4.10
2013,03,27,00,50,4.10
2013,03,27,00,51,4.10
2013,03,27,00,52,4.10
2013,03,27,00,53,4.10
2013,03,27,00,54,4.10
2013,03,27,00,55,4.10
2013,03,27,00,56,4.10
2013,03,27,00,57,4.10
2013,03,27,00,58,4.10
2013,03,27,00,59,4.10
2013,03,27,01,00,4.10
2013,03,27,01,01,4.10
2013,03,27,01,02,4.10
2013,03,27,01,03,4.10
2013,03,27,01,04,4.10
2013,03,27,01,05,4.10
2013,03,27,01,06,4.10
2013,03,27,01,07,4.10
2013,03,27,01,08,4.00
2013,03,27,01,09,4.00
2013,03,27,01,10,4.00
2013,03,27,01,11,4.00
2013,03,27,01,12,4.00
2013,03,27,01,13,4.00
2013,03,27,01,14,4.00
2013,03,27,01,15,4.00
2013,03,27,01,16,4.00
2013,03,27,01,17,4.00
2013,03,27,01,18,4.00
2013,03,27,01,19,4.00
2013,03,27,01,20,4.00
2013,03,27,01,21,3.90
2013,03,27,01,22,3.90
2013,03,27,01,23,3.90
2013,03,27,01,24,3.90
2013,03,27,01,25,3.90
2013,03,27,01,26,3.90
2013,03,27,01,27,3.90
2013,03,27,01,28,3.90
2013,03,27,01,29,3.90
2013,03,27,01,30,3.80
2013,03,27,01,31,3.80
2013,03,27,01,32,3.90
2013,03,27,01,33,3.90
2013,03,27,01,34,3.90
2013,03,27,01,35,3.80
2013,03,27,01,36,3.80
2013,03,27,01,37,3.80
2013,03,27,01,38,3.80
2013,03,27,01,39,3.80
2013,03,27,01,40,3.80
2013,03,27,01,41,3.80
2013,03,27,01,42,3.80
2013,03,27,01,43,3.80
2013,03,27,01,44,3.80
2013,03,27,01,45,3.80
2013,03,27,01,46,3.70
2013,03,27,01,47,3.70
2013,03,27,01,48,3.70
2013,03,27,01,49,3.80
2013,03,27,01,50,3.80
2013,03,27,01,51,3.80
2013,03,27,01,52,3.80
2013,03,27,01,53,3.80
2013,03,27,01,54,3.80
2013,03,27,01,55,3.80
2013,03,27,01,56,3.70
2013,03,27,01,57,3.70
2013,03,27,01,58,3.70
2013,03,27,01,59,3.70
2013,03,27,02,00,3.70
2013,03,27,02,01,3.70
2013,03,27,02,02,3.70
2013,03,27,02,03,3.70
2013,03,27,02,04,3.70
2013,03,27,02,05,3.70
2013,03,27,02,06,3.70
2013,03,27,02,07,3.70
2013,03,27,02,08,3.70
2013,03,27,02,09,3.70
2013,03,27,02,10,3.70
2013,03,27,02,11,3.70
2013,03,27,02,12,3.70
2013,03,27,02,13,3.60
2013,03,27,02,14,3.60
2013,03,27,02,15,3.60
2013,03,27,02,16,3.60
2013,03,27,02,17,3.60
2013,03,27,02,18,3.60
2013,03,27,02,19,3.60
2013,03,27,02,20,3.60
2013,03,27,02,21,3.50
2013,03,27,02,22,3.50
2013,03,27,02,23,3.50
2013,03,27,02,24,3.50
2013,03,27,02,25,3.50
2013,03,27,02,26,3.60
2013,03,27,02,27,3.60
2013,03,27,02,28,3.50
2013,03,27,02,29,3.50
2013,03,27,02,30,3.50
2013,03,27,02,31,3.50
2013,03,27,02,32,3.60
2013,03,27,02,33,3.60
2013,03,27,02,34,3.60
2013,03,27,02,35,3.60
2013,03,27,02,36,3.60
2013,03,27,02,37,3.60
2013,03,27,02,38,3.60
2013,03,27,02,39,3.60
2013,03,27,02,40,3.60
2013,03,27,02,41,3.60
2013,03,27,02,42,3.60
2013,03,27,02,43,3.60
2013,03,27,02,44,3.60
2013,03,27,02,45,3.60
2013,03,27,02,46,3.60
2013,03,27,02,47,3.60
2013,03,27,02,48,3.60
2013,03,27,02,49,3.60
2013,03,27,02,50,3.60
2013,03,27,02,51,3.60
2013,03,27,02,52,3.60
2013,03,27,02,53,3.60
2013,03,27,02,54,3.60
2013,03,27,02,55,3.70
2013,03,27,02,56,3.70
2013,03,27,02,57,3.70
2013,03,27,02,58,3.70
2013,03,27,02,59,3.70
2013,03,27,03,00,3.70
2013,03,27,03,01,3.70
2013,03,27,03,02,3.70
2013,03,27,03,03,3.70
2013,03,27,03,04,3.70
2013,03,27,03,05,3.70
2013,03,27,03,06,3.70
2013,03,27,03,07,3.70
2013,03,27,03,08,3.70
2013,03,27,03,09,3.70
2013,03,27,03,10,3.70
2013,03,27,03,11,3.70
2013,03,27,03,12,3.70
2013,03,27,03,13,3.70
2013,03,27,03,14,3.70
2013,03,27,03,15,3.70
2013,03,27,03,16,3.70
2013,03,27,03,17,3.70
2013,03,27,03,18,3.70
2013,03,27,03,19,3.70
2013,03,27,03,20,3.70
2013,03,27,03,21,3.70
2013,03,27,03,22,3.70
2013,03,27,03,23,3.70
2013,03,27,03,24,3.70
2013,03,27,03,25,3.70
2013,03,27,03,26,3.70
2013,03,27,03,27,3.70
2013,03,27,03,28,3.70
2013,03,27,03,29,3.70
2013,03,27,03,30,3.70
2013,03,27,03,31,3.70
2013,03,27,03,32,3.70
2013,03,27,03,33,3.70
2013,03,27,03,34,3.70
2013,03,27,03,35,3.70
2013,03,27,03,36,3.80
2013,03,27,03,37,3.70
2013,03,27,03,38,3.70
2013,03,27,03,39,3.70
2013,03,27,03,40,3.70
2013,03,27,03,41,3.70
2013,03,27,03,42,3.70
2013,03,27,03,43,3.80
2013,03,27,03,44,3.80
2013,03,27,03,45,3.80
2013,03,27,03,46,3.80
2013,03,27,03,47,3.80
2013,03,27,03,48,3.80
2013,03,27,03,49,3.80
2013,03,27,03,50,3.80
2013,03,27,03,51,3.90
2013,03,27,03,52,3.80
2013,03,27,03,53,3.80
2013,03,27,03,54,3.80
2013,03,27,03,55,3.80
2013,03,27,03,56,3.70
2013,03,27,03,57,3.70
2013,03,27,03,58,3.80
2013,03,27,03,59,3.80
2013,03,27,04,00,3.80
2013,03,27,04,01,3.80
2013,03,27,04,02,3.70
2013,03,27,04,03,3.70
2013,03,27,04,04,3.70
2013,03,27,04,05,3.70
2013,03,27,04,06,3.80
2013,03,27,04,07,3.80
2013,03,27,04,08,3.80
2013,03,27,04,09,3.80
2013,03,27,04,10,3.80
2013,03,27,04,11,3.80
2013,03,27,04,12,3.80
2013,03,27,04,13,3.80
2013,03,27,04,14,3.80
2013,03,27,04,15,3.80
2013,03,27,04,16,3.80
2013,03,27,04,17,3.80
2013,03,27,04,18,3.80
2013,03,27,04,19,3.80
2013,03,27,04,20,3.80
2013,03,27,04,21,3.90
2013,03,27,04,22,3.90
2013,03,27,04,23,3.90
2013,03,27,04,24,3.90
2013,03,27,04,25,3.90
2013,03,27,04,26,3.90
2013,03,27,04,27,3.90
2013,03,27,04,28,3.90
2013,03,27,04,29,3.80
2013,03,27,04,30,3.80
2013,03,27,04,31,3.80
2013,03,27,04,32,3.80
2013,03,27,04,33,3.80
2013,03,27,04,34,3.80
2013,03,27,04,35,3.80
2013,03,27,04,36,3.80
2013,03,27,04,37,3.80
2013,03,27,04,38,3.80
2013,03,27,04,39,3.80
2013,03,27,04,40,3.80
2013,03,27,04,41,3.80
2013,03,27,04,42,3.80
2013,03,27,04,43,3.80
2013,03,27,04,44,3.80
2013,03,27,04,45,3.80
2013,03,27,04,46,3.80
2013,03,27,04,47,3.80
2013,03,27,04,48,3.80
2013,03,27,04,49,3.80
2013,03,27,04,50,3.80
2013,03,27,04,51,3.80
2013,03,27,04,52,3.80
2013,03,27,04,53,3.80
2013,03,27,04,54,3.70
2013,03,27,04,55,3.70
2013,03,27,04,56,3.80
2013,03,27,04,57,3.80
2013,03,27,04,58,3.80
2013,03,27,04,59,3.80
2013,03,27,05,00,3.80
2013,03,27,05,01,3.70
2013,03,27,05,02,3.70
2013,03,27,05,03,3.70
2013,03,27,05,04,3.70
2013,03,27,05,05,3.70
2013,03,27,05,06,3.70
2013,03,27,05,07,3.70
2013,03,27,05,08,3.70
2013,03,27,05,09,3.70
2013,03,27,05,10,3.70
2013,03,27,05,11,3.70
2013,03,27,05,12,3.70
2013,03,27,05,13,3.70
2013,03,27,05,14,3.80
2013,03,27,05,15,3.80
2013,03,27,05,16,3.80
2013,03,27,05,17,3.80
2013,03,27,05,18,3.80
2013,03,27,05,19,3.80
2013,03,27,05,20,3.80
2013,03,27,05,21,3.80
2013,03,27,05,22,3.80
2013,03,27,05,23,3.80
2013,03,27,05,24,3.80
2013,03,27,05,25,3.80
2013,03,27,05,26,3.80
2013,03,27,05,27,3.80
2013,03,27,05,28,3.80
2013,03,27,05,29,3.80
2013,03,27,05,30,3.80
2013,03,27,05,31,3.80
2013,03,27,05,32,3.80
2013,03,27,05,33,3.80
2013,03,27,05,34,3.80
2013,03,27,05,35,3.80
2013,03,27,05,36,3.80
2013,03,27,05,37,3.80
2013,03,27,05,38,3.80
2013,03,27,05,39,3.80
2013,03,27,05,40,3.70
2013,03,27,05,41,3.70
2013,03,27,05,42,3.70
2013,03,27,05,43,3.70
2013,03,27,05,44,3.70
2013,03,27,05,45,3.70
2013,03,27,05,46,3.80
2013,03,27,05,47,3.80
2013,03,27,05,48,3.80
2013,03,27,05,49,3.80
2013,03,27,05,50,3.70
2013,03,27,05,51,3.80
2013,03,27,05,52,3.70
2013,03,27,05,53,3.70
2013,03,27,05,54,3.70
2013,03,27,05,55,3.80
2013,03,27,05,56,3.80
2013,03,27,05,57,3.80
2013,03,27,05,58,3.80
2013,03,27,05,59,3.70
2013,03,27,06,00,3.70
2013,03,27,06,01,3.70
2013,03,27,06,02,3.80
2013,03,27,06,03,3.80
2013,03,27,06,04,3.70
2013,03,27,06,05,3.70
2013,03,27,06,06,3.60
2013,03,27,06,07,3.60
2013,03,27,06,08,3.60
2013,03,27,06,09,3.50
2013,03,27,06,10,3.50
2013,03,27,06,11,3.50
2013,03,27,06,12,3.40
2013,03,27,06,13,3.40
2013,03,27,06,14,3.40
2013,03,27,06,15,3.50
2013,03,27,06,16,3.50
2013,03,27,06,17,3.60
2013,03,27,06,18,3.60
2013,03,27,06,19,3.60
2013,03,27,06,20,3.60
2013,03,27,06,21,3.70
2013,03,27,06,22,3.60
2013,03,27,06,23,3.60
2013,03,27,06,24,3.60
2013,03,27,06,25,3.60
2013,03,27,06,26,3.60
2013,03,27,06,27,3.50
2013,03,27,06,28,3.50
2013,03,27,06,29,3.50
2013,03,27,06,30,3.50
2013,03,27,06,31,3.50
2013,03,27,06,32,3.50
2013,03,27,06,33,3.50
2013,03,27,06,34,3.60
2013,03,27,06,35,3.60
2013,03,27,06,36,3.60
2013,03,27,06,37,3.60
2013,03,27,06,38,3.60
2013,03,27,06,39,3.60
2013,03,27,06,40,3.60
2013,03,27,06,41,3.60
2013,03,27,06,42,3.60
2013,03,27,06,43,3.60
2013,03,27,06,44,3.70
2013,03,27,06,45,3.60
2013,03,27,06,46,3.60
2013,03,27,06,47,3.60
2013,03,27,06,48,3.60
2013,03,27,06,49,3.60
2013,03,27,06,50,3.60
2013,03,27,06,51,3.70
2013,03,27,06,52,3.70
2013,03,27,06,53,3.70
2013,03,27,06,54,3.70
2013,03,27,06,55,3.70
2013,03,27,06,56,3.70
2013,03,27,06,57,3.70
2013,03,27,06,58,3.70
2013,03,27,06,59,3.70
2013,03,27,07,00,3.70
2013,03,27,07,01,3.70
2013,03,27,07,02,3.70
2013,03,27,07,03,3.70
2013,03,27,07,04,3.70
2013,03,27,07,05,3.70
2013,03,27,07,06,3.70
2013,03,27,07,07,3.70
2013,03,27,07,08,3.70
2013,03,27,07,09,3.70
2013,03,27,07,10,3.70
2013,03,27,07,11,3.70
2013,03,27,07,12,3.70
2013,03,27,07,13,3.60
2013,03,27,07,14,3.60
2013,03,27,07,15,3.60
2013,03,27,07,16,3.60
2013,03,27,07,17,3.60
2013,03,27,07,18,3.60
2013,03,27,07,19,3.70
2013,03,27,07,20,3.70
2013,03,27,07,21,3.70
2013,03,27,07,22,3.70
2013,03,27,07,23,3.80
2013,03,27,07,24,3.80
2013,03,27,07,25,3.70
2013,03,27,07,26,3.80
2013,03,27,07,27,3.80
2013,03,27,07,28,3.70
2013,03,27,07,29,3.70
2013,03,27,07,30,3.70
2013,03,27,07,31,3.70
2013,03,27,07,32,3.70
2013,03,27,07,33,3.70
2013,03,27,07,34,3.60
2013,03,27,07,35,3.60
2013,03,27,07,36,3.60
2013,03,27,07,37,3.60
2013,03,27,07,38,3.60
2013,03,27,07,39,3.60
2013,03,27,07,40,3.70
2013,03,27,07,41,3.70
2013,03,27,07,42,3.80
2013,03,27,07,43,3.80
2013,03,27,07,44,3.80
2013,03,27,07,45,3.80
2013,03,27,07,46,3.90
2013,03,27,07,47,3.90
2013,03,27,07,48,3.90
2013,03,27,07,49,3.90
2013,03,27,07,50,3.90
2013,03,27,07,51,3.90
2013,03,27,07,52,4.00
2013,03,27,07,53,4.00
2013,03,27,07,54,4.00
2013,03,27,07,55,4.00
2013,03,27,07,56,4.00
2013,03,27,07,57,4.00
2013,03,27,07,58,4.00
2013,03,27,07,59,4.10
2013,03,27,08,00,4.10
2013,03,27,08,01,4.10
2013,03,27,08,02,4.10
2013,03,27,08,03,4.10
2013,03,27,08,04,4.10
2013,03,27,08,05,4.10
2013,03,27,08,06,4.20
2013,03,27,08,07,4.20
2013,03,27,08,08,4.20
2013,03,27,08,09,4.20
2013,03,27,08,10,4.20
2013,03,27,08,11,4.20
2013,03,27,08,12,4.20
2013,03,27,08,13,4.30
2013,03,27,08,14,4.30
2013,03,27,08,15,4.30
2013,03,27,08,16,4.30
2013,03,27,08,17,4.30
2013,03,27,08,18,4.30
2013,03,27,08,19,4.30
2013,03,27,08,20,4.40
2013,03,27,08,21,4.40
2013,03,27,08,22,4.50
2013,03,27,08,23,4.50
2013,03,27,08,24,4.60
2013,03,27,08,25,4.60
2013,03,27,08,26,4.70
2013,03,27,08,27,4.70
2013,03,27,08,28,4.80
2013,03,27,08,29,4.80
2013,03,27,08,30,4.90
2013,03,27,08,31,4.90
2013,03,27,08,32,5.00
2013,03,27,08,33,5.10
2013,03,27,08,34,5.10
2013,03,27,08,35,5.10
2013,03,27,08,36,5.10
2013,03,27,08,37,5.20
2013,03,27,08,38,5.20
2013,03,27,08,39,5.30
2013,03,27,08,40,5.30
2013,03,27,08,41,5.30
2013,03,27,08,42,5.40
2013,03,27,08,43,5.40
2013,03,27,08,44,5.40
2013,03,27,08,45,5.40
2013,03,27,08,46,5.50
2013,03,27,08,47,5.50
2013,03,27,08,48,5.50
2013,03,27,08,49,5.50
2013,03,27,08,50,5.50
2013,03,27,08,51,5.50
2013,03,27,08,52,5.50
2013,03,27,08,53,5.60
2013,03,27,08,54,5.60
2013,03,27,08,55,5.70
2013,03,27,08,56,5.70
2013,03,27,08,57,5.80
2013,03,27,08,58,5.90
2013,03,27,08,59,5.90
2013,03,27,09,00,6.00
2013,03,27,09,01,6.10
2013,03,27,09,02,6.10
2013,03,27,09,03,6.20
2013,03,27,09,04,6.20
2013,03,27,09,05,6.30
2013,03,27,09,06,6.40
2013,03,27,09,07,6.50
2013,03,27,09,08,6.60
2013,03,27,09,09,6.60
2013,03,27,09,10,6.70
2013,03,27,09,11,6.70
2013,03,27,09,12,6.80
2013,03,27,09,13,6.80
2013,03,27,09,14,6.80
2013,03,27,09,15,6.90
2013,03,27,09,16,6.90
2013,03,27,09,17,6.90
2013,03,27,09,18,7.00
2013,03,27,09,19,7.00
2013,03,27,09,20,7.10
2013,03,27,09,21,7.10
2013,03,27,09,22,7.10
2013,03,27,09,23,7.20
2013,03,27,09,24,7.20
2013,03,27,09,25,7.30
2013,03,27,09,26,7.30
2013,03,27,09,27,7.40
2013,03,27,09,28,7.50
2013,03,27,09,29,7.50
2013,03,27,09,30,7.50
2013,03,27,09,31,7.60
2013,03,27,09,32,7.60
2013,03,27,09,33,7.70
2013,03,27,09,34,7.70
2013,03,27,09,35,7.70
2013,03,27,09,36,7.70
2013,03,27,09,37,7.70
2013,03,27,09,38,7.80
2013,03,27,09,39,7.80
2013,03,27,09,40,7.90
2013,03,27,09,41,8.00
2013,03,27,09,42,8.00
2013,03,27,09,43,8.10
2013,03,27,09,44,8.10
2013,03,27,09,45,8.20
2013,03,27,09,46,8.20
2013,03,27,09,47,8.20
2013,03,27,09,48,8.20
2013,03,27,09,49,8.20
2013,03,27,09,50,8.20
2013,03,27,09,51,8.30
2013,03,27,09,52,8.30
2013,03,27,09,53,8.30
2013,03,27,09,54,8.40
2013,03,27,09,55,8.50
2013,03,27,09,56,8.50
2013,03,27,09,57,8.60
2013,03,27,09,58,8.60
2013,03,27,09,59,8.70
2013,03,27,10,00,8.70
2013,03,27,10,01,8.70
2013,03,27,10,02,8.70
2013,03,27,10,03,8.80
2013,03,27,10,04,8.80
2013,03,27,10,05,8.90
2013,03,27,10,06,9.00
2013,03,27,10,07,9.00
2013,03,27,10,08,9.10
2013,03,27,10,09,9.20
2013,03,27,10,10,9.30
2013,03,27,10,11,9.40
2013,03,27,10,12,9.50
2013,03,27,10,13,9.50
2013,03,27,10,14,9.60
2013,03,27,10,15,9.70
2013,03,27,10,16,9.70
2013,03,27,10,17,9.80
2013,03,27,10,18,9.80
2013,03,27,10,19,9.80
2013,03,27,10,20,9.90
2013,03,27,10,21,9.90
2013,03,27,10,22,10.00
2013,03,27,10,23,10.00
2013,03,27,10,24,10.10
2013,03,27,10,25,10.10
2013,03,27,10,26,10.10
2013,03,27,10,27,10.10
2013,03,27,10,28,10.20
2013,03,27,10,29,10.20
2013,03,27,10,30,10.20
2013,03,27,10,31,10.20
2013,03,27,10,32,10.20
2013,03,27,10,33,10.20
2013,03,27,10,34,10.20
2013,03,27,10,35,10.20
2013,03,27,10,36,10.20
2013,03,27,10,37,10.20
2013,03,27,10,38,10.10
2013,03,27,10,39,10.10
2013,03,27,10,40,10.10
2013,03,27,10,41,10.10
2013,03,27,10,42,10.10
2013,03,27,10,43,10.20
2013,03,27,10,44,10.20
2013,03,27,10,45,10.20
2013,03,27,10,46,10.20
2013,03,27,10,47,10.20
2013,03,27,10,48,10.20
2013,03,27,10,49,10.10
2013,03,27,10,50,10.10
2013,03,27,10,51,10.10
2013,03,27,10,52,10.10
2013,03,27,10,53,10.10
2013,03,27,10,54,10.10
2013,03,27,10,55,10.10
2013,03,27,10,56,10.10
2013,03,27,10,57,10.10
2013,03,27,10,58,10.20
2013,03,27,10,59,10.20
2013,03,27,11,00,10.30
2013,03,27,11,01,10.40
2013,03,27,11,02,10.50
2013,03,27,11,03,10.60
2013,03,27,11,04,10.70
2013,03,27,11,05,10.80
2013,03,27,11,06,10.90
2013,03,27,11,07,11.00
2013,03,27,11,08,11.00
2013,03,27,11,09,11.00
2013,03,27,11,10,11.00
2013,03,27,11,11,10.90
2013,03,27,11,12,10.80
2013,03,27,11,13,10.70
2013,03,27,11,14,10.70
2013,03,27,11,15,10.70
2013,03,27,11,16,10.60
2013,03,27,11,17,10.60
2013,03,27,11,18,10.60
2013,03,27,11,19,10.70
2013,03,27,11,20,10.70
2013,03,27,11,21,10.70
2013,03,27,11,22,10.80
2013,03,27,11,23,10.80
2013,03,27,11,24,10.90
2013,03,27,11,25,10.90
2013,03,27,11,26,11.00
2013,03,27,11,27,11.10
2013,03,27,11,28,11.10
2013,03,27,11,29,11.10
2013,03,27,11,30,11.10
2013,03,27,11,31,11.10
2013,03,27,11,32,11.10
2013,03,27,11,33,11.00
2013,03,27,11,34,11.00
2013,03,27,11,35,10.90
2013,03,27,11,36,11.00
2013,03,27,11,37,11.10
2013,03,27,11,38,11.20
2013,03,27,11,39,11.20
2013,03,27,11,40,11.30
2013,03,27,11,41,11.30
2013,03,27,11,42,11.40
2013,03,27,11,43,11.40
2013,03,27,11,44,11.40
2013,03,27,11,45,11.50
2013,03,27,11,46,11.50
2013,03,27,11,47,11.50
2013,03,27,11,48,11.50
2013,03,27,11,49,11.40
2013,03,27,11,50,11.30
2013,03,27,11,51,11.20
2013,03,27,11,52,11.20
2013,03,27,11,53,11.20
2013,03,27,11,54,11.20
2013,03,27,11,55,11.20
2013,03,27,11,56,11.20
2013,03,27,11,57,11.20
2013,03,27,11,58,11.20
2013,03,27,11,59,11.20
2013,03,27,12,00,11.20
2013,03,27,12,01,11.20
2013,03,27,12,02,11.20
2013,03,27,12,03,11.20
2013,03,27,12,04,11.30
2013,03,27,12,05,11.30
2013,03,27,12,06,11.30
2013,03,27,12,07,11.30
2013,03,27,12,08,11.20
2013,03,27,12,09,11.10
2013,03,27,12,10,11.10
2013,03,27,12,11,11.10
2013,03,27,12,12,11.10
2013,03,27,12,13,11.20
2013,03,27,12,14,11.20
2013,03,27,12,15,11.20
2013,03,27,12,16,11.30
2013,03,27,12,17,11.40
2013,03,27,12,18,11.50
2013,03,27,12,19,11.50
2013,03,27,12,20,11.60
2013,03,27,12,21,11.70
2013,03,27,12,22,11.70
2013,03,27,12,23,11.70
2013,03,27,12,24,11.70
2013,03,27,12,25,11.70
2013,03,27,12,26,11.80
2013,03,27,12,27,11.80
2013,03,27,12,28,11.70
2013,03,27,12,29,11.80
2013,03,27,12,30,11.80
2013,03,27,12,31,11.80
2013,03,27,12,32,11.90
2013,03,27,12,33,11.90
2013,03,27,12,34,12.00
2013,03,27,12,35,12.00
2013,03,27,12,36,12.00
2013,03,27,12,37,12.00
2013,03,27,12,38,12.00
2013,03,27,12,39,12.00
2013,03,27,12,40,12.00
2013,03,27,12,41,11.90
2013,03,27,12,42,11.90
2013,03,27,12,43,11.90
2013,03,27,12,44,11.80
2013,03,27,12,45,11.90
2013,03,27,12,46,12.00
2013,03,27,12,47,12.10
2013,03,27,12,48,12.20
2013,03,27,12,49,12.30
2013,03,27,12,50,12.30
2013,03,27,12,51,12.30
2013,03,27,12,52,12.20
2013,03,27,12,53,12.30
2013,03,27,12,54,12.30
2013,03,27,12,55,12.20
2013,03,27,12,56,12.10
2013,03,27,12,57,12.10
2013,03,27,12,58,12.20
2013,03,27,12,59,12.20
2013,03,27,13,00,12.30
2013,03,27,13,01,12.40
2013,03,27,13,02,12.40
2013,03,27,13,03,12.50
2013,03,27,13,04,12.50
2013,03,27,13,05,12.60
2013,03,27,13,06,12.60
2013,03,27,13,07,12.50
2013,03,27,13,08,12.50
2013,03,27,13,09,12.50
2013,03,27,13,10,12.40
2013,03,27,13,11,12.40
2013,03,27,13,12,12.50
2013,03,27,13,13,12.60
2013,03,27,13,14,12.60
2013,03,27,13,15,12.60
2013,03,27,13,16,12.60
2013,03,27,13,17,12.70
2013,03,27,13,18,12.70
2013,03,27,13,19,12.70
2013,03,27,13,20,12.80
2013,03,27,13,21,12.80
2013,03,27,13,22,12.80
2013,03,27,13,23,12.80
2013,03,27,13,24,12.70
2013,03,27,13,25,12.70
2013,03,27,13,26,12.70
2013,03,27,13,27,12.70
2013,03,27,13,28,12.70
2013,03,27,13,29,12.70
2013,03,27,13,30,12.70
2013,03,27,13,31,12.70
2013,03,27,13,32,12.70
2013,03,27,13,33,12.60
2013,03,27,13,34,12.60
2013,03,27,13,35,12.50
2013,03,27,13,36,12.40
2013,03,27,13,37,12.40
2013,03,27,13,38,12.40
2013,03,27,13,39,12.40
2013,03,27,13,40,12.50
2013,03,27,13,41,12.50
2013,03,27,13,42,12.60
2013,03,27,13,43,12.60
2013,03,27,13,44,12.60
2013,03,27,13,45,12.60
2013,03,27,13,46,12.60
2013,03,27,13,47,12.70
2013,03,27,13,48,12.80
2013,03,27,13,49,12.80
2013,03,27,13,50,12.80
2013,03,27,13,51,12.80
2013,03,27,13,52,12.90
2013,03,27,13,53,12.90
2013,03,27,13,54,12.80
2013,03,27,13,55,12.80
2013,03,27,13,56,12.80
2013,03,27,13,57,12.80
2013,03,27,13,58,12.70
2013,03,27,13,59,12.60
2013,03,27,14,00,12.60
2013,03,27,14,01,12.60
2013,03,27,14,02,12.70
2013,03,27,14,03,12.70
2013,03,27,14,04,12.70
2013,03,27,14,05,12.60
2013,03,27,14,06,12.60
2013,03,27,14,07,12.60
2013,03,27,14,08,12.60
2013,03,27,14,09,12.60
2013,03,27,14,10,12.60
2013,03,27,14,11,12.60
2013,03,27,14,12,12.60
2013,03,27,14,13,12.70
2013,03,27,14,14,12.70
2013,03,27,14,15,12.60
2013,03,27,14,16,12.60
2013,03,27,14,17,12.60
2013,03,27,14,18,12.60
2013,03,27,14,19,12.60
2013,03,27,14,20,12.60
2013,03,27,14,21,12.70
2013,03,27,14,22,12.70
2013,03,27,14,23,12.70
2013,03,27,14,24,12.70
2013,03,27,14,25,12.60
2013,03,27,14,26,12.60
2013,03,27,14,27,12.60
2013,03,27,14,28,12.70
2013,03,27,14,29,12.70
2013,03,27,14,30,12.60
2013,03,27,14,31,12.60
2013,03,27,14,32,12.60
2013,03,27,14,33,12.60
2013,03,27,14,34,12.50
2013,03,27,14,35,12.50
2013,03,27,14,36,12.50
2013,03,27,14,37,12.50
2013,03,27,14,38,12.50
2013,03,27,14,39,12.50
2013,03,27,14,40,12.60
2013,03,27,14,41,12.70
2013,03,27,14,42,12.70
2013,03,27,14,43,12.70
2013,03,27,14,44,12.70
2013,03,27,14,45,12.70
2013,03,27,14,46,12.80
2013,03,27,14,47,12.80
2013,03,27,14,48,12.80
2013,03,27,14,49,12.90
2013,03,27,14,50,12.90
2013,03,27,14,51,13.00
2013,03,27,14,52,13.00
2013,03,27,14,53,13.00
2013,03,27,14,54,13.00
2013,03,27,14,55,13.10
2013,03,27,14,56,13.10
2013,03,27,14,57,13.20
2013,03,27,14,58,13.20
2013,03,27,14,59,13.20
2013,03,27,15,00,13.20
2013,03,27,15,01,13.20
2013,03,27,15,02,13.20
2013,03,27,15,03,13.20
2013,03,27,15,04,13.20
2013,03,27,15,05,13.20
2013,03,27,15,06,13.20
2013,03,27,15,07,13.20
2013,03,27,15,08,13.20
2013,03,27,15,09,13.30
2013,03,27,15,10,13.10
2013,03,27,15,11,13.00
2013,03,27,15,12,13.00
2013,03,27,15,13,13.10
2013,03,27,15,14,13.10
2013,03,27,15,15,13.20
2013,03,27,15,16,13.30
2013,03,27,15,17,13.40
2013,03,27,15,18,13.50
2013,03,27,15,19,13.60
2013,03,27,15,20,13.60
2013,03,27,15,21,13.70
2013,03,27,15,22,13.70
2013,03,27,15,23,13.70
2013,03,27,15,24,13.80
2013,03,27,15,25,13.90
2013,03,27,15,26,13.90
2013,03,27,15,27,13.90
2013,03,27,15,28,14.00
2013,03,27,15,29,14.10
2013,03,27,15,30,14.10
2013,03,27,15,31,14.00
2013,03,27,15,32,13.80
2013,03,27,15,33,13.70
2013,03,27,15,34,13.70
2013,03,27,15,35,13.50
2013,03,27,15,36,13.40
2013,03,27,15,37,13.30
2013,03,27,15,38,13.20
2013,03,27,15,39,13.20
2013,03,27,15,40,13.20
2013,03,27,15,41,13.30
2013,03,27,15,42,13.30
2013,03,27,15,43,13.30
2013,03,27,15,44,13.40
2013,03,27,15,45,13.40
2013,03,27,15,46,13.50
2013,03,27,15,47,13.50
2013,03,27,15,48,13.60
2013,03,27,15,49,13.60
2013,03,27,15,50,13.60
2013,03,27,15,51,13.70
2013,03,27,15,52,13.70
2013,03,27,15,53,13.70
2013,03,27,15,54,13.80
2013,03,27,15,55,13.80
2013,03,27,15,56,13.90
2013,03,27,15,57,13.90
2013,03,27,15,58,13.90
2013,03,27,15,59,13.90
2013,03,27,16,00,13.80
2013,03,27,16,01,13.80
2013,03,27,16,02,13.70
2013,03,27,16,03,13.70
2013,03,27,16,04,13.70
2013,03,27,16,05,13.70
2013,03,27,16,06,13.70
2013,03,27,16,07,13.70
2013,03,27,16,08,13.70
2013,03,27,16,09,13.70
2013,03,27,16,10,13.60
2013,03,27,16,11,13.50
2013,03,27,16,12,13.50
2013,03,27,16,13,13.50
2013,03,27,16,14,13.50
2013,03,27,16,15,13.50
2013,03,27,16,16,13.60
2013,03,27,16,17,13.70
2013,03,27,16,18,13.70
2013,03,27,16,19,13.80
2013,03,27,16,20,13.80
2013,03,27,16,21,13.90
2013,03,27,16,22,14.00
2013,03,27,16,23,14.10
2013,03,27,16,24,14.20
2013,03,27,16,25,14.20
2013,03,27,16,26,14.20
2013,03,27,16,27,14.20
2013,03,27,16,28,14.20
2013,03,27,16,29,14.20
2013,03,27,16,30,14.20
2013,03,27,16,31,14.20
2013,03,27,16,32,14.20
2013,03,27,16,33,14.10
2013,03,27,16,34,14.10
2013,03,27,16,35,14.10
2013,03,27,16,36,14.10
2013,03,27,16,37,14.10
2013,03,27,16,38,14.10
2013,03,27,16,39,14.00
2013,03,27,16,40,14.00
2013,03,27,16,41,14.00
2013,03,27,16,42,13.90
2013,03,27,16,43,13.90
2013,03,27,16,44,14.00
2013,03,27,16,45,14.00
2013,03,27,16,46,14.00
2013,03,27,16,47,13.90
2013,03,27,16,48,13.80
2013,03,27,16,49,13.80
2013,03,27,16,50,13.70
2013,03,27,16,51,13.60
2013,03,27,16,52,13.60
2013,03,27,16,53,13.60
2013,03,27,16,54,13.60
2013,03,27,16,55,13.60
2013,03,27,16,56,13.60
2013,03,27,16,57,13.60
2013,03,27,16,58,13.70
2013,03,27,16,59,13.70
2013,03,27,17,00,13.60
2013,03,27,17,01,13.70
2013,03,27,17,02,13.70
2013,03,27,17,03,13.70
2013,03,27,17,04,13.70
2013,03,27,17,05,13.70
2013,03,27,17,06,13.80
2013,03,27,17,07,13.80
2013,03,27,17,08,13.90
2013,03,27,17,09,13.90
2013,03,27,17,10,13.90
2013,03,27,17,11,14.00
2013,03,27,17,12,14.10
2013,03,27,17,13,14.10
2013,03,27,17,14,14.20
2013,03,27,17,15,14.20
2013,03,27,17,16,14.20
2013,03,27,17,17,14.20
2013,03,27,17,18,14.10
2013,03,27,17,19,14.10
2013,03,27,17,20,14.10
2013,03,27,17,21,14.10
2013,03,27,17,22,14.10
2013,03,27,17,23,14.10
2013,03,27,17,24,14.10
2013,03,27,17,25,14.00
2013,03,27,17,26,14.00
2013,03,27,17,27,13.90
2013,03,27,17,28,13.80
2013,03,27,17,29,13.80
2013,03,27,17,30,13.70
2013,03,27,17,31,13.60
2013,03,27,17,32,13.50
2013,03,27,17,33,13.50
2013,03,27,17,34,13.40
2013,03,27,17,35,13.40
2013,03,27,17,36,13.30
2013,03,27,17,37,13.30
2013,03,27,17,38,13.20
2013,03,27,17,39,13.20
2013,03,27,17,40,13.20
2013,03,27,17,41,13.20
2013,03,27,17,42,13.10
2013,03,27,17,43,13.10
2013,03,27,17,44,13.10
2013,03,27,17,45,13.00
2013,03,27,17,46,13.00